Weather History for Jacksonville Craig, FL

Change the Weather History Date:

Sunday, October 24, 2010

  Actual Average Record
Temperature  
Mean Temperature 70 °F -  
Max Temperature 86 °F 76 °F 87 °F (2001)
Min Temperature 57 °F 59 °F 45 °F (1999)
Cooling Degree Days 6    
Growing Degree Days 20 (Base 50)    
Moisture  
Dew Point 61 °F    
Average Humidity 89    
Maximum Humidity 100    
Minimum Humidity 46    
Precipitation  
Precipitation 0.00 in - - ()
Sea Level Pressure  
Sea Level Pressure 30.15 in    
Wind  
Wind Speed 1 mph (SE)    
Max Wind Speed 15 mph    
Max Gust Speed 18 mph    
Visibility 4 miles    
Events Fog    
Averages and records for this station are not official NWS values.
T = Trace of Precipitation, MM = Missing Value Source: NWS Daily Summary

Daily Weather History Graph

Daily Weather History Graph

Search for Another Location

Airport:

Trip Planner

Search our weather history database for the weather conditions in past years. The results will help you decide how hot, cold, wet, or windy it might be!

Date:

Astronomy

Oct. 24, 2010 Rise Set
Actual Time 7:34 AM EDT 6:45 PM EDT
Civil Twilight 7:09 AM EDT 7:10 PM EDT
Nautical Twilight 6:41 AM EDT 7:38 PM EDT
Astronomical Twilight 6:13 AM EDT 8:06 PM EDT
Moon 7:39 PM EDT (10/24) 9:02 AM EDT (10/24)
Length of Visible Light 12h 00m
Length of Day
11h 11m
Full, 97% of the Moon is Illuminated
Oct 24
Full
Oct 30
Last Quarter
Nov 6
New
Nov 13
First Quarter
Nov 21
Full

Hourly Weather History & Observations

Time (EDT) Temp. Heat Index Dew Point Humidity Pressure Visibility Wind Dir Wind Speed Gust Speed Precip Events Conditions
12:53 AM 66.9 °F - 64.9 °F 93% 30.19 in 10.0 mi Calm Calm - N/A   Mostly Cloudy
1:28 AM 66.2 °F - 64.4 °F 94% 30.18 in 1.8 mi Calm Calm - N/A   Scattered Clouds
1:46 AM 66.2 °F - 64.4 °F 94% 30.18 in 0.8 mi Calm Calm - N/A   Scattered Clouds
1:53 AM 66.0 °F - 64.9 °F 96% 30.18 in 0.8 mi Calm Calm - N/A   Partly Cloudy
2:08 AM 64.4 °F - 62.6 °F 94% 30.18 in 0.2 mi Calm Calm - N/A Fog Fog
2:20 AM 64.4 °F - 62.6 °F 94% 30.18 in 0.8 mi Calm Calm - N/A   Mist
2:23 AM 64.4 °F - 64.4 °F 100% 30.18 in 2.0 mi Calm Calm - N/A   Mostly Cloudy
2:25 AM 64.4 °F - 64.4 °F 100% 30.17 in 0.8 mi Calm Calm - N/A   Mist
2:29 AM 64.4 °F - 64.4 °F 100% 30.17 in 0.2 mi Calm Calm - N/A Fog Fog
2:38 AM 64.4 °F - 62.6 °F 94% 30.17 in 0.8 mi Calm Calm - N/A   Mist
2:40 AM 64.4 °F - 62.6 °F 94% 30.17 in 2.5 mi Calm Calm - N/A   Scattered Clouds
2:53 AM 63.0 °F - 62.1 °F 97% 30.17 in 10.0 mi Calm Calm - N/A   Partly Cloudy
3:09 AM 62.6 °F - 62.6 °F 100% 30.16 in 0.8 mi Calm Calm - N/A   Mist
3:12 AM 62.6 °F - 62.6 °F 100% 30.16 in 0.2 mi Calm Calm - N/A Fog Fog
3:18 AM 62.6 °F - 60.8 °F 94% 30.16 in 0.5 mi Calm Calm - N/A Fog Fog
3:22 AM 62.6 °F - 60.8 °F 94% 30.16 in 0.8 mi Calm Calm - N/A   Mist
3:26 AM 62.6 °F - 60.8 °F 94% 30.15 in 0.2 mi Calm Calm - N/A Fog Fog
3:53 AM 60.1 °F - 59.0 °F 96% 30.14 in 0.2 mi Calm Calm - N/A Fog Fog
4:05 AM 60.8 °F - 60.8 °F 100% 30.14 in 0.8 mi Calm Calm - N/A   Mist
4:08 AM 60.8 °F - 60.8 °F 100% 30.14 in 1.5 mi Calm Calm - N/A   Scattered Clouds
4:10 AM 60.8 °F - 60.8 °F 100% 30.14 in 3.0 mi Calm Calm - N/A   Scattered Clouds
4:22 AM 62.6 °F - 62.6 °F 100% 30.14 in 1.5 mi Calm Calm - N/A   Partly Cloudy
4:36 AM 60.8 °F - 59.0 °F 94% 30.14 in 1.2 mi Calm Calm - N/A   Clear
4:38 AM 59.0 °F - 59.0 °F 100% 30.14 in 0.8 mi Calm Calm - N/A   Mist
4:47 AM 59.0 °F - 57.2 °F 94% 30.14 in 1.0 mi Calm Calm - N/A   Clear
4:53 AM 60.1 °F - 59.0 °F 96% 30.14 in 4.0 mi Calm Calm - N/A   Clear
4:59 AM 60.8 °F - 60.8 °F 100% 30.14 in 1.5 mi Calm Calm - N/A   Partly Cloudy
5:02 AM 60.8 °F - 60.8 °F 100% 30.15 in 0.8 mi Calm Calm - N/A   Mist
5:08 AM 59.0 °F - 59.0 °F 100% 30.15 in 0.2 mi Calm Calm - N/A Fog Fog
5:23 AM 59.0 °F - 57.2 °F 94% 30.15 in 1.0 mi Calm Calm - N/A   Mist
5:26 AM 59.0 °F - 57.2 °F 94% 30.15 in 2.0 mi Calm Calm - N/A   Partly Cloudy
5:33 AM 57.2 °F - 57.2 °F 100% 30.15 in 8.0 mi Calm Calm - N/A   Partly Cloudy
5:51 AM 57.2 °F - 57.2 °F 100% 30.15 in 1.8 mi Calm Calm - N/A   Partly Cloudy
5:53 AM 57.9 °F - 57.0 °F 97% 30.15 in 1.0 mi Calm Calm - N/A   Mist
5:58 AM 57.2 °F - 55.4 °F 94% 30.15 in 0.5 mi Calm Calm - N/A Fog Fog
6:09 AM 57.2 °F - 57.2 °F 100% 30.15 in 0.2 mi Calm Calm - N/A Fog Fog
6:16 AM 57.2 °F - 57.2 °F 100% 30.15 in 0.8 mi Calm Calm - N/A   Mist
6:19 AM 59.0 °F - 57.2 °F 94% 30.15 in 1.5 mi Calm Calm - N/A   Partly Cloudy
6:35 AM 57.2 °F - 57.2 °F 100% 30.16 in 3.0 mi Calm Calm - N/A   Clear
6:53 AM 59.0 °F - 57.0 °F 93% 30.16 in 2.0 mi Calm Calm - N/A   Partly Cloudy
6:57 AM 59.0 °F - 57.2 °F 94% 30.16 in 1.0 mi Calm Calm - N/A   Mist
7:04 AM 59.0 °F - 57.2 °F 94% 30.16 in 7.0 mi Calm Calm - N/A   Partly Cloudy
7:53 AM 57.9 °F - 55.9 °F 93% 30.18 in 7.0 mi Calm Calm - N/A   Partly Cloudy
8:53 AM 66.9 °F - 64.9 °F 93% 30.19 in 10.0 mi Calm Calm - N/A   Clear
9:53 AM 77.0 °F - 66.9 °F 71% 30.20 in 10.0 mi SSE 3.5 mph - N/A   Clear
10:53 AM 81.0 °F 82.7 °F 64.9 °F 58% 30.18 in 10.0 mi South 6.9 mph - N/A   Partly Cloudy
11:53 AM 84.0 °F 84.9 °F 63.0 °F 49% 30.18 in 10.0 mi South 9.2 mph - N/A   Clear
12:53 PM 84.0 °F 84.5 °F 62.1 °F 47% 30.16 in 10.0 mi SSE 11.5 mph 18.4 mph N/A   Clear
1:53 PM 84.9 °F 85.4 °F 62.1 °F 46% 30.13 in 10.0 mi SE 9.2 mph 18.4 mph N/A   Clear
2:53 PM 84.0 °F 84.9 °F 63.0 °F 49% 30.11 in 10.0 mi SE 11.5 mph 18.4 mph N/A   Clear
3:53 PM 82.9 °F 83.2 °F 60.1 °F 46% 30.09 in 10.0 mi SE 15.0 mph - N/A   Clear
4:53 PM 81.0 °F 82.2 °F 63.0 °F 54% 30.10 in 10.0 mi SE 10.4 mph - N/A   Clear
5:53 PM 79.0 °F - 64.9 °F 62% 30.09 in 10.0 mi SE 8.1 mph - N/A   Clear
6:53 PM 75.0 °F - 66.0 °F 73% 30.07 in 10.0 mi SE 4.6 mph - N/A   Clear
7:53 PM 72.0 °F - 66.0 °F 81% 30.08 in 10.0 mi SE 3.5 mph - N/A   Clear
8:53 PM 71.1 °F - 66.0 °F 84% 30.09 in 10.0 mi Calm Calm - N/A   Clear
9:53 PM 69.1 °F - 64.9 °F 87% 30.08 in 10.0 mi SSE 3.5 mph - N/A   Clear
10:53 PM 66.9 °F - 64.0 °F 90% 30.07 in 10.0 mi SE 3.5 mph - N/A   Clear
11:53 PM 64.9 °F - 62.1 °F 90% 30.07 in 10.0 mi Calm Calm - N/A   Clear